Weather History for Hollywood, FL

Change the Weather History Date:

Monday, February 25, 2013

  Actual Average (KFLL) Record (KFLL)
Temperature  
Mean Temperature 76 °F 72 °F  
Max Temperature 84 °F 78 °F 87 °F (2014)
Min Temperature 69 °F 65 °F 35 °F (1989)
Degree Days  
Heating Degree Days 0 1  
Month to date heating degree days 25  
Since 1 July heating degree days 105  
Cooling Degree Days 12 7  
Month to date cooling degree days 166  
Year to date cooling degree days 336  
Growing Degree Days 26 (Base 50)    
Moisture  
Dew Point 68 °F    
Average Humidity 75    
Maximum Humidity 93    
Minimum Humidity 53    
Precipitation  
Precipitation 0.00 in 0.09 in 2.50 in (1957)
Month to date precipitation 2.68  
Year to date precipitation 6.31  
Snow  
Snow 0.00 in - - ()
Month to date snowfall  
Since 1 July snowfall  
Snow Depth -    
Sea Level Pressure  
Sea Level Pressure 29.89 in    
Wind  
Wind Speed 6 mph (SSE)    
Max Wind Speed 18 mph    
Max Gust Speed 24 mph    
Visibility 10 miles    
Events      
T = Trace of Precipitation, MM = Missing Value Source: NWS Daily Summary

Daily Weather History Graph

Daily Weather History Graph

Search for Another Location

Airport:

Trip Planner

Search our weather history database for the weather conditions in past years. The results will help you decide how hot, cold, wet, or windy it might be!

Date:

Astronomy

Feb. 25, 2013 Rise Set
Actual Time 6:47 AM EST 6:20 PM EST
Civil Twilight 6:24 AM EST 6:43 PM EST
Nautical Twilight 5:57 AM EST 7:10 PM EST
Astronomical Twilight 5:31 AM EST 7:37 PM EST
Moon 6:25 PM EST (2/25) 6:20 AM EST (2/25)
Length of Visible Light 12h 19m
Length of Day
11h 32m
Full, 100% of the Moon is Illuminated
Feb 25
Full
Feb 25
Full
Mar 4
Last Quarter
Mar 11
New
Mar 19
First Quarter

Hourly Weather History & Observations

Time (EST) Temp. Heat Index Dew Point Humidity Pressure Visibility Wind Dir Wind Speed Gust Speed Precip Events Conditions
12:53 AM 73.0 °F - 68.0 °F 84% 29.94 in 10.0 mi NNW 3.5 mph - N/A   Clear
1:53 AM 72.0 °F - 66.9 °F 84% 29.92 in 10.0 mi Calm Calm - N/A   Clear
2:53 AM 71.1 °F - 66.9 °F 87% 29.90 in 10.0 mi SE 3.5 mph - N/A   Clear
3:53 AM 70.0 °F - 66.9 °F 90% 29.91 in 10.0 mi Calm Calm - N/A   Scattered Clouds
4:53 AM 70.0 °F - 66.9 °F 90% 29.89 in 10.0 mi Calm Calm - N/A   Clear
5:53 AM 69.1 °F - 66.9 °F 93% 29.90 in 10.0 mi Calm Calm - N/A   Mostly Cloudy
6:53 AM 71.1 °F - 68.0 °F 90% 29.90 in 10.0 mi Calm Calm - N/A   Partly Cloudy
7:53 AM 73.9 °F - 71.1 °F 91% 29.91 in 10.0 mi SE 3.5 mph - N/A   Partly Cloudy
8:53 AM 77.0 °F - 72.0 °F 84% 29.94 in 10.0 mi South 10.4 mph - N/A   Mostly Cloudy
9:43 AM 80.6 °F 83.9 °F 69.8 °F 70% 29.94 in 10.0 mi South 8.1 mph - N/A   Mostly Cloudy
9:53 AM 81.0 °F 84.4 °F 70.0 °F 69% 29.94 in 10.0 mi SSE 10.4 mph - N/A   Mostly Cloudy
10:21 AM 80.6 °F 83.2 °F 68.0 °F 65% 29.93 in 10.0 mi SSE 15.0 mph - N/A   Partly Cloudy
10:53 AM 82.0 °F 85.5 °F 69.1 °F 65% 29.93 in 10.0 mi SSE 11.5 mph - N/A   Scattered Clouds
11:53 AM 82.9 °F 85.8 °F 68.0 °F 60% 29.91 in 10.0 mi South 11.5 mph - N/A   Mostly Cloudy
12:53 PM 84.0 °F 87.8 °F 69.1 °F 61% 29.88 in 10.0 mi SE 16.1 mph 21.9 mph N/A   Mostly Cloudy
1:53 PM 84.0 °F 87.0 °F 68.0 °F 58% 29.87 in 10.0 mi South 13.8 mph - N/A   Mostly Cloudy
2:53 PM 84.9 °F 87.6 °F 66.9 °F 55% 29.85 in 10.0 mi SSE 18.4 mph 24.2 mph N/A   Partly Cloudy
3:53 PM 84.0 °F 85.8 °F 64.9 °F 53% 29.85 in 10.0 mi SSE 16.1 mph 21.9 mph N/A   Clear
4:53 PM 82.0 °F 83.8 °F 64.9 °F 56% 29.84 in 10.0 mi South 13.8 mph - N/A   Clear
5:53 PM 80.1 °F 81.9 °F 64.9 °F 60% 29.86 in 10.0 mi South 10.4 mph - N/A   Clear
6:53 PM 77.0 °F - 68.0 °F 74% 29.86 in 10.0 mi SSE 6.9 mph - N/A   Clear
7:53 PM 75.9 °F - 69.1 °F 79% 29.87 in 10.0 mi SE 4.6 mph - N/A   Clear
8:53 PM 75.0 °F - 69.1 °F 82% 29.88 in 10.0 mi SSE 5.8 mph - N/A   Clear
9:53 PM 75.0 °F - 71.1 °F 87% 29.88 in 10.0 mi SE 8.1 mph - N/A   Scattered Clouds
10:53 PM 75.0 °F - 71.1 °F 87% 29.88 in 10.0 mi SSE 8.1 mph - N/A   Clear
11:53 PM 75.9 °F - 71.1 °F 85% 29.88 in 10.0 mi SSE 8.1 mph - N/A   Mostly Cloudy